Augusta Springs, VA

10:21 AM EDT on August 31, 2016 (GMT -0400)
Riverheads | | Change Station

Elev 1854 ft 38.05 °N, 79.15 °W | Updated 1 minute ago

Clear
Clear
81.5 °F
Feels Like 85 °F
N
3.0
Wind Variable Wind from West
Gusts 7.6 mph

Today
High -- | Low -- °F
--% Chance of Precip.
Yesterday
High -- | Low -- °F
Precip. -- in
Pressure 30.06 in
Visibility 10.0 miles
Clouds Clear
Heat Index 85 °F
Dew Point 70 °F
Humidity 67%
Rainfall 0.00 in
Snow Depth Not available.
6:46 AM 7:47 PM
Waning Crescent, 1% visible
METAR KSHD 311415Z AUTO 25003KT 10SM CLR 24/22 A3006 RMK AO2 T02400215
Pressure 30.06 in
Visibility 10.0 miles
Clouds Clear
Heat Index 85 °F
Dew Point 70 °F
Humidity 67%
Rainfall 0.00 in
Snow Depth Not available.
6:46 AM 7:47 PM
Waning Crescent, 1% visible
METAR KSHD 311415Z AUTO 25003KT 10SM CLR 24/22 A3006 RMK AO2 T02400215

10-Day Weather Forecast

Almanac

Astronomy

Aug. 31, 2016 Rise Set
Actual Time
Civil Twilight
Nautical Twilight
Astronomical Twilight
Moon
Length of Visible Light
Length of Day
Tomorrow will be .
, % of the Moon is Illuminated

Today's Extremes

State Highs State Lows

Community

WunderPhotos

Upload Photos

1,936,091 photos uploaded!

WunderBlog® & News

Nearby

Air Quality

  Air Quality AQ Index Pollutant
Not available.

Snow Depth

Station Depth Elevation

Earthquake Activity

City Distance Mag. Time & Date
Minimum magnitude displayed is 2.5.

Coastal Water Temperatures

Place Temperature

Stations

Nearby Weather Stations

Station Location Temp. Windchill Dew Point Humidity Wind Precip. Elev Updated Type
                   

Watches & Warnings

There are currently no watches in effect.